FW2998 Weather Reports


time (UTC)temp
F
wind
direction
speed
knots
gust
knots
rain 1hr
in
rain 24hr
in
rain mn
in
humidity
%
barometer
mb
20260508025019 70 74 0.0 9.6 0.01 0.26 0.18 79 1013.2
20260508024542 70 0 0.0 3.5 0.01 0.26 0.18 78 1012.9
20260508024019 70 0 0.0 3.5 0.01 0.26 0.18 78 1012.7
20260508023521 71 0 0.0 0.0 0.01 0.26 0.18 78 1012.7
20260508023036 71 0 0.0 0.0 0.01 0.26 0.18 77 1012.4
20260508022524 71 0 0.0 0.0 0.01 0.26 0.18 77 1012.2
20260508022019 71 0 0.0 2.6 0.01 0.26 0.18 77 1012.2
20260508021532 71 0 0.0 3.5 0.00 0.25 0.17 76 1012.0
20260508021024 71 0 0.0 3.5 0.00 0.25 0.17 76 1011.9
20260508020520 71 29 0.0 3.5 0.00 0.25 0.17 76 1011.8
20260508020034 71 0 0.0 4.3 0.00 0.25 0.17 76 1011.9
20260508015519 71 0 0.9 4.3 0.00 0.25 0.17 76 1011.6
20260508015019 72 0 0.0 3.5 0.00 0.25 0.17 75 1011.4
20260508014540 72 0 0.0 3.5 0.00 0.25 0.17 75 1011.3
20260508014021 72 0 0.0 3.5 0.00 0.25 0.17 74 1011.1
20260508013519 72 0 0.0 3.5 0.00 0.25 0.17 74 1011.1
20260508013037 72 277 0.0 3.5 0.00 0.25 0.17 74 1011.0
20260508012522 73 0 0.0 2.6 0.00 0.25 0.17 73 1011.0
20260508012021 73 0 0.0 0.9 0.00 0.25 0.17 73 1010.9
20260508011537 73 0 0.0 1.7 0.00 0.25 0.17 72 1010.8
20260508011020 73 0 0.0 2.6 0.00 0.25 0.17 72 1010.8
20260508010520 73 0 0.0 6.1 0.00 0.25 0.17 72 1010.7
20260508010048 74 0 0.0 6.1 0.00 0.25 0.17 71 1010.7
20260508005519 74 0 0.0 6.1 0.01 0.25 0.17 71 1010.7
20260508005021 74 0 0.0 6.1 0.01 0.25 0.17 71 1010.6
20260508004534 74 0 0.0 5.2 0.01 0.25 0.17 70 1010.5
20260508004021 74 0 0.0 5.2 0.01 0.25 0.17 70 1010.4
20260508003520 75 0 0.0 6.1 0.01 0.25 0.17 70 1010.2
20260508003036 75 0 0.0 6.1 0.01 0.25 0.17 69 1010.2
20260508002520 75 0 0.0 7.0 0.01 0.25 0.17 69 1010.1
20260508002019 75 315 0.9 7.0 0.01 0.25 0.17 68 1009.9
20260508001536 75 0 0.9 6.1 0.01 0.25 0.17 68 1009.9
20260508001019 76 0 0.0 7.0 0.01 0.25 0.17 68 1009.7
20260508000524 76 0 0.0 7.8 0.01 0.25 0.17 68 1009.6
20260508000036 76 237 0.9 10.4 0.01 0.25 0.17 69 1009.6
20260507235523 76 287 0.0 10.4 0.00 0.24 0.16 69 1009.5
20260507235019 76 0 1.7 10.4 0.00 0.24 0.16 68 1009.4
20260507234532 77 163 1.7 7.8 0.00 0.24 0.16 69 1009.3
20260507234019 77 236 1.7 7.8 0.00 0.24 0.16 69 1009.3
20260507233520 77 254 0.9 13.0 0.00 0.24 0.16 69 1009.3
20260507233037 77 298 1.7 13.0 0.00 0.24 0.16 69 1009.3
20260507232518 77 302 2.6 8.7 0.00 0.24 0.16 69 1009.2
20260507232020 77 289 0.9 8.7 0.00 0.24 0.16 70 1009.0
20260507231543 78 0 0.0 11.3 0.01 0.24 0.16 70 1009.0
20260507231019 78 309 1.7 11.3 0.01 0.24 0.16 69 1008.9
20260507230519 78 0 0.0 9.6 0.01 0.24 0.16 70 1008.9
20260507230040 78 0 0.9 9.6 0.01 0.24 0.16 70 1009.0
20260507225520 78 331 0.9 6.1 0.01 0.24 0.16 70 1008.9
20260507225020 79 250 0.9 5.2 0.01 0.24 0.16 70 1009.0
20260507224536 79 0 0.0 7.8 0.01 0.24 0.16 69 1009.0
20260507224020 79 117 1.7 7.8 0.01 0.24 0.16 69 1009.0
20260507223519 79 326 0.9 6.1 0.01 0.24 0.16 68 1008.8
20260507223038 80 0 0.0 2.6 0.01 0.24 0.16 68 1008.8
20260507222519 80 0 0.0 7.8 0.01 0.24 0.16 68 1008.8
20260507222020 80 294 1.7 7.8 0.01 0.24 0.16 67 1008.8
20260507221537 80 0 0.0 10.4 0.00 0.23 0.15 67 1008.8
20260507221020 81 273 0.9 10.4 0.00 0.23 0.15 66 1008.8
20260507220519 81 277 0.9 7.8 0.00 0.23 0.15 65 1008.9
20260507220037 81 273 0.0 2.6 0.00 0.23 0.15 66 1008.8
20260507215521 81 0 0.0 5.2 0.00 0.23 0.15 66 1008.8
20260507215019 81 0 0.9 6.1 0.00 0.23 0.15 65 1008.7
20260507214536 81 132 0.0 7.0 0.00 0.23 0.15 66 1008.8
20260507214020 81 284 0.9 8.7 0.00 0.23 0.15 67 1008.8
20260507213520 81 5 0.0 8.7 0.00 0.23 0.15 68 1008.7
20260507213034 81 0 1.7 8.7 0.00 0.23 0.15 69 1008.7
20260507212520 80 0 0.0 7.0 0.00 0.23 0.15 70 1008.7
20260507212019 80 0 0.9 7.0 0.00 0.23 0.15 71 1008.7
20260507211539 79 265 0.0 6.1 0.01 0.23 0.15 73 1008.8
20260507211021 79 0 0.0 8.7 0.01 0.23 0.15 74 1009.0
20260507210519 78 0 0.9 8.7 0.01 0.23 0.15 73 1008.9
20260507210036 78 0 0.0 7.0 0.01 0.23 0.15 74 1009.1
20260507205519 78 313 0.9 7.0 0.01 0.23 0.15 74 1009.1
20260507205020 78 315 0.9 6.1 0.01 0.23 0.15 74 1009.3
20260507204539 78 154 0.9 6.1 0.01 0.23 0.15 74 1009.1
20260507204020 78 0 0.0 7.0 0.01 0.23 0.15 75 1009.3
20260507203519 78 302 1.7 8.7 0.01 0.23 0.15 76 1009.3
20260507203038 77 0 2.6 8.7 0.02 0.23 0.15 76 1009.3
20260507202519 77 0 0.9 7.8 0.02 0.23 0.15 78 1009.2
20260507202019 76 0 0.9 6.1 0.01 0.22 0.14 78 1009.3
20260507201543 76 288 1.7 7.0 0.01 0.22 0.14 78 1009.3
20260507201021 77 352 1.7 7.0 0.01 0.22 0.14 79 1009.2
20260507200520 77 0 0.9 8.7 0.01 0.22 0.14 78 1009.2
20260507200040 77 208 0.9 8.7 0.01 0.22 0.14 78 1009.2
20260507195520 78 171 1.7 7.8 0.01 0.22 0.14 78 1009.2
20260507195020 78 0 0.9 7.8 0.01 0.22 0.14 77 1009.1
20260507194537 78 232 0.9 9.6 0.01 0.22 0.14 77 1009.0
20260507194053 78 0 1.7 9.6 0.01 0.22 0.14 80 1009.0
20260507193519 77 299 0.9 6.1 0.01 0.22 0.14 81 1008.9
20260507193038 77 0 0.9 7.8 0.00 0.21 0.13 84 1008.9
20260507192518 76 311 1.7 7.8 0.00 0.21 0.13 84 1008.9
20260507192020 76 312 0.0 6.1 0.00 0.21 0.13 89 1008.9
20260507191536 75 316 0.9 8.7 0.00 0.21 0.13 90 1009.0
20260507191019 75 0 0.9 8.7 0.00 0.21 0.13 92 1008.9
20260507190521 74 0 0.9 7.0 0.00 0.21 0.13 94 1009.1
20260507190035 74 161 0.0 3.5 0.00 0.21 0.13 95 1009.0
20260507185519 73 0 0.0 1.7 0.00 0.21 0.13 96 1009.1
20260507185019 73 0 0.0 1.7 0.01 0.21 0.13 96 1009.1
20260507184532 73 0 0.0 7.8 0.01 0.21 0.13 97 1009.2
20260507184019 72 0 0.9 7.8 0.01 0.21 0.13 97 1009.1
20260507183524 72 0 0.0 3.5 0.01 0.21 0.13 98 1009.3
20260507183046 72 0 0.0 3.5 0.01 0.21 0.13 97 1009.4
20260507182520 72 286 0.0 3.5 0.01 0.21 0.13 97 1009.3
20260507182022 72 0 0.0 3.5 0.01 0.21 0.13 97 1009.3
20260507181541 72 0 0.0 0.9 0.01 0.21 0.13 98 1009.2
20260507181020 72 0 0.0 0.9 0.01 0.21 0.13 98 1009.1
20260507180519 71 0 0.0 0.9 0.01 0.21 0.13 97 1009.0
20260507180040 71 0 0.0 0.9 0.01 0.21 0.13 97 1009.1
20260507175520 71 0 0.0 4.3 0.01 0.21 0.13 98 1009.4
20260507175020 71 0 0.0 4.3 0.00 0.20 0.12 98 1009.4
20260507174535 71 295 0.0 3.5 0.00 0.20 0.12 98 1009.5
20260507174020 71 0 0.0 1.7 0.01 0.20 0.12 98 1009.3
20260507173520 71 242 0.0 1.7 0.01 0.20 0.12 98 1009.4
20260507173035 71 0 0.0 0.9 0.01 0.20 0.12 98 1009.5
20260507172520 71 0 0.0 0.9 0.01 0.20 0.12 98 1009.6
20260507172019 70 0 0.0 1.7 0.01 0.20 0.12 98 1009.8
20260507171548 70 0 0.0 1.7 0.01 0.20 0.12 98 1009.9
20260507171019 70 0 0.0 1.7 0.01 0.20 0.12 98 1009.8
20260507170520 69 0 0.0 0.0 0.01 0.20 0.12 98 1009.6
20260507170037 69 0 0.0 0.0 0.01 0.20 0.12 98 1010.1
20260507165519 69 0 0.0 0.0 0.01 0.20 0.12 97 1009.8
20260507165019 69 0 0.0 0.0 0.01 0.20 0.12 98 1010.1
20260507164544 69 0 0.0 0.9 0.01 0.20 0.12 98 1010.1
20260507164019 69 0 0.0 0.9 0.00 0.19 0.11 97 1010.2
20260507163521 69 0 0.0 0.9 0.00 0.19 0.11 98 1010.2
20260507163043 69 0 0.0 0.9 0.00 0.19 0.11 98 1010.2
20260507162520 68 0 0.0 0.0 0.00 0.19 0.11 97 1010.2
20260507162020 68 0 0.0 0.0 0.00 0.19 0.11 97 1010.0
20260507161541 68 0 0.0 0.0 0.00 0.19 0.11 97 1010.3
20260507161019 68 0 0.0 0.0 0.00 0.19 0.11 97 1010.4
20260507160520 68 0 0.0 0.0 0.00 0.19 0.11 98 1010.4
20260507160045 68 0 0.0 0.0 0.00 0.19 0.11 97 1010.3
20260507155519 68 0 0.0 0.0 0.00 0.19 0.11 97 1010.2
20260507155019 68 0 0.0 0.0 0.00 0.19 0.11 97 1010.4
20260507154538 68 0 0.0 0.9 0.00 0.19 0.11 97 1010.5
20260507154019 68 0 0.0 0.9 0.00 0.19 0.11 97 1010.5
20260507153519 68 0 0.0 0.9 0.01 0.19 0.11 97 1010.7
20260507153043 68 0 0.0 0.0 0.01 0.19 0.11 97 1010.9
20260507152519 68 0 0.0 0.9 0.01 0.19 0.11 97 1010.8
20260507152020 68 0 0.0 2.6 0.01 0.19 0.11 97 1010.9
20260507151535 68 0 0.0 2.6 0.01 0.19 0.11 97 1011.0
20260507151021 68 290 0.0 4.3 0.01 0.19 0.11 97 1011.1
20260507150520 68 0 0.0 4.3 0.01 0.19 0.11 97 1011.2
20260507150036 68 0 0.0 5.2 0.01 0.19 0.11 97 1011.3
20260507145519 68 0 0.0 5.2 0.02 0.19 0.11 97 1011.3
20260507145025 68 0 0.9 2.6 0.02 0.19 0.11 97 1011.1
20260507144535 68 0 0.0 0.0 0.02 0.19 0.11 97 1010.2
20260507144020 68 0 0.0 0.0 0.02 0.19 0.11 97 1010.4
20260507143519 68 0 0.0 0.0 0.01 0.18 0.10 97 1010.4
20260507143034 68 0 0.0 0.0 0.01 0.18 0.10 97 1010.1
20260507142521 68 0 0.0 0.0 0.01 0.18 0.10 97 1010.0
20260507142019 68 0 0.0 0.9 0.01 0.18 0.10 97 1010.0
20260507141543 68 0 0.0 0.9 0.01 0.18 0.10 97 1010.1
20260507141022 68 0 0.0 2.6 0.01 0.18 0.10 97 1010.2
20260507140522 68 0 0.0 2.6 0.02 0.18 0.10 97 1010.3
20260507140038 68 0 0.0 0.0 0.02 0.18 0.10 97 1010.4
20260507135519 68 0 0.0 0.0 0.01 0.17 0.09 97 1010.4
20260507135020 68 0 0.0 0.9 0.01 0.17 0.09 97 1010.6
20260507134536 68 0 0.0 0.9 0.01 0.17 0.09 97 1010.4
20260507134021 68 0 0.0 0.0 0.02 0.17 0.09 97 1010.3
20260507133520 68 0 0.0 0.0 0.02 0.17 0.09 97 1010.3
20260507133032 68 0 0.0 0.0 0.02 0.17 0.09 97 1010.4
20260507132519 68 0 0.0 0.0 0.02 0.17 0.09 97 1010.7
20260507132020 68 0 0.0 0.0 0.02 0.17 0.09 97 1011.1
20260507131536 68 0 0.0 0.0 0.02 0.17 0.09 97 1011.3
20260507131020 68 0 0.0 0.9 0.02 0.17 0.09 97 1011.3
20260507130519 68 0 0.0 0.9 0.01 0.16 0.08 97 1011.3
20260507130050 68 0 0.0 0.9 0.01 0.16 0.08 97 1011.4
20260507125519 68 0 0.0 0.0 0.01 0.16 0.08 97 1011.2
20260507125020 68 0 0.0 0.9 0.01 0.16 0.08 97 1010.7
20260507124555 68 0 0.0 0.9 0.01 0.16 0.08 97 1010.4
20260507124021 67 0 0.0 0.0 0.01 0.15 0.07 97 1010.3
20260507123519 67 0 0.0 0.0 0.01 0.15 0.07 97 1010.1
20260507123036 67 0 0.0 0.0 0.01 0.15 0.07 97 1010.1
20260507122519 67 0 0.0 0.0 0.01 0.15 0.07 97 1010.0
20260507122019 67 0 0.0 0.0 0.02 0.15 0.07 97 1010.1
20260507121537 67 0 0.0 0.0 0.02 0.15 0.07 97 1010.2
20260507121020 67 0 0.0 0.0 0.02 0.15 0.07 97 1010.1
20260507120524 67 0 0.0 0.0 0.02 0.15 0.07 97 1010.1
20260507120035 67 0 0.0 0.9 0.02 0.15 0.07 97 1009.9
20260507115520 67 0 0.0 0.9 0.02 0.15 0.07 96 1010.3
20260507115024 67 0 0.0 1.7 0.02 0.15 0.07 96 1009.6
20260507114544 67 0 0.0 1.7 0.02 0.15 0.07 96 1009.9
20260507114020 67 0 0.0 1.7 0.01 0.14 0.06 96 1010.1
20260507113519 67 0 0.0 0.9 0.01 0.14 0.06 96 1010.6
20260507113032 67 0 0.0 1.7 0.01 0.14 0.06 96 1011.1
20260507112519 67 0 0.0 2.6 0.01 0.14 0.06 96 1011.6
20260507112019 67 0 0.0 2.6 0.00 0.13 0.05 96 1012.3
20260507111538 67 0 0.0 0.0 0.00 0.13 0.05 96 1012.6
20260507111019 67 0 0.0 0.9 0.00 0.13 0.05 96 1012.3
20260507110520 67 0 0.0 5.2 0.00 0.13 0.05 96 1012.1
20260507110043 67 0 0.0 5.2 0.00 0.13 0.05 96 1012.2
20260507105519 67 0 0.0 1.7 0.00 0.13 0.05 96 1012.3
20260507105020 67 0 0.0 2.6 0.00 0.13 0.05 96 1012.3
20260507104540 67 0 0.0 2.6 0.00 0.13 0.05 96 1012.5
20260507104022 67 0 0.0 1.7 0.00 0.13 0.05 96 1012.1
20260507103520 67 0 0.0 1.7 0.00 0.13 0.05 96 1011.8
20260507103040 67 0 0.0 1.7 0.01 0.13 0.05 96 1011.7
20260507102519 67 0 0.0 1.7 0.01 0.13 0.05 96 1011.5
20260507102020 67 0 0.0 1.7 0.01 0.13 0.05 96 1011.6
20260507101535 67 0 0.0 1.7 0.01 0.13 0.05 96 1011.6
20260507101020 67 0 0.0 1.7 0.01 0.13 0.05 96 1011.6
20260507100520 67 0 0.0 1.7 0.01 0.13 0.05 96 1011.5
20260507100036 67 0 0.0 0.0 0.01 0.13 0.05 96 1011.6
20260507095520 67 0 0.0 0.0 0.01 0.13 0.05 96 1011.5
20260507095022 67 0 0.0 0.0 0.01 0.13 0.05 96 1011.6
20260507094536 67 0 0.0 0.0 0.01 0.13 0.05 96 1011.9
20260507094019 67 0 0.0 0.0 0.01 0.13 0.05 96 1012.2
20260507093519 67 0 0.0 0.9 0.01 0.13 0.05 96 1012.3
20260507093040 67 0 0.0 0.9 0.01 0.12 0.04 96 1012.1
20260507092521 67 0 0.0 0.0 0.01 0.12 0.04 96 1012.2
20260507092019 67 0 0.0 0.0 0.01 0.12 0.04 95 1012.2
20260507091541 67 0 0.0 0.0 0.01 0.12 0.04 96 1012.1
20260507091020 67 0 0.0 0.0 0.01 0.12 0.04 96 1012.3
20260507090520 67 0 0.0 1.7 0.01 0.12 0.04 96 1012.2
20260507090035 67 0 0.0 1.7 0.01 0.12 0.04 96 1012.2
20260507085520 67 0 0.0 0.0 0.01 0.12 0.04 96 1012.2
20260507085020 67 0 0.0 0.0 0.01 0.12 0.04 96 1012.2
20260507084534 67 0 0.0 0.0 0.01 0.12 0.04 95 1012.2
20260507084019 67 0 0.0 0.0 0.01 0.12 0.04 95 1011.9
20260507083519 67 0 0.0 0.0 0.01 0.12 0.04 95 1011.6
20260507083036 67 0 0.0 0.0 0.00 0.11 0.03 95 1011.4
20260507082521 67 0 0.0 0.0 0.00 0.11 0.03 95 1011.5
20260507082019 67 0 0.0 0.9 0.00 0.11 0.03 95 1011.6
20260507081536 67 0 0.0 0.9 0.00 0.11 0.03 95 1011.7
20260507081019 67 0 0.0 0.9 0.00 0.11 0.03 95 1011.8
20260507080519 67 0 0.0 0.9 0.00 0.11 0.03 95 1011.8
20260507080042 67 0 0.0 0.9 0.00 0.11 0.03 95 1011.9
20260507075519 67 0 0.0 0.0 0.01 0.11 0.03 95 1011.9
20260507075020 67 0 0.0 0.0 0.01 0.11 0.03 95 1011.8
20260507074538 67 0 0.0 0.0 0.01 0.11 0.03 95 1011.7
20260507074019 67 0 0.0 0.0 0.01 0.11 0.03 95 1011.8
20260507073519 67 0 0.0 0.0 0.01 0.11 0.03 95 1011.8
20260507073042 67 0 0.0 0.0 0.01 0.11 0.03 95 1011.8
20260507072517 67 0 0.0 0.0 0.01 0.11 0.03 95 1011.8
20260507072018 67 0 0.0 0.0 0.01 0.11 0.03 95 1011.9
20260507071537 67 0 0.0 0.0 0.01 0.11 0.03 94 1011.9
20260507071019 67 0 0.0 0.0 0.01 0.11 0.03 94 1011.8
20260507070520 67 0 0.0 0.9 0.01 0.11 0.03 94 1011.7
20260507070037 67 0 0.0 0.9 0.01 0.11 0.03 94 1011.7
20260507065521 67 0 0.0 0.0 0.00 0.10 0.02 94 1011.8
20260507065019 67 0 0.0 0.0 0.00 0.10 0.02 94 1011.9
20260507064536 67 0 0.0 0.0 0.00 0.10 0.02 94 1011.9
20260507064022 67 0 0.0 0.9 0.01 0.10 0.02 94 1011.9
20260507063522 67 0 0.0 0.9 0.01 0.10 0.02 94 1012.2
20260507063051 67 0 0.0 0.0 0.01 0.10 0.02 94 1011.9
20260507062520 67 0 0.0 0.0 0.01 0.10 0.02 94 1011.9
20260507062020 67 0 0.0 0.0 0.01 0.10 0.02 94 1011.9
20260507061535 67 0 0.0 0.0 0.01 0.10 0.02 94 1011.9
20260507061018 67 0 0.0 0.9 0.01 0.10 0.02 93 1011.9
20260507060520 67 0 0.0 0.9 0.01 0.10 0.02 93 1012.0
20260507060043 67 0 0.0 0.0 0.01 0.10 0.02 93 1012.1
20260507055520 67 0 0.0 0.0 0.01 0.10 0.02 93 1012.1
20260507055019 67 0 0.0 0.0 0.01 0.10 0.02 93 1012.2
20260507054541 68 0 0.0 0.0 0.01 0.10 0.02 93 1012.0
20260507054019 68 0 0.0 0.0 0.00 0.09 0.01 93 1011.9
20260507053520 68 0 0.0 0.0 0.00 0.09 0.01 93 1012.0
20260507053035 68 0 0.0 0.0 0.00 0.09 0.01 93 1012.2
20260507052521 68 0 0.0 0.0 0.00 0.09 0.01 93 1012.1
20260507052021 68 0 0.0 0.0 0.01 0.09 0.01 93 1012.2
20260507051536 68 0 0.0 0.0 0.01 0.09 0.01 93 1012.3
20260507051020 68 0 0.0 0.0 0.01 0.09 0.01 93 1012.7
20260507050520 68 0 0.0 0.0 0.01 0.09 0.01 93 1012.6
20260507050036 68 0 0.0 0.0 0.01 0.09 0.01 92 1012.6
20260507045520 68 0 0.0 0.0 0.01 0.09 0.01 93 1013.0
20260507045020 68 0 0.0 0.0 0.02 0.09 0.01 92 1013.2
20260507044542 68 0 0.0 0.0 0.02 0.09 0.01 92 1013.5
20260507044020 68 0 0.0 0.0 0.02 0.09 0.01 92 1013.7
20260507043518 68 0 0.0 0.0 0.02 0.09 0.01 92 1014.1
20260507043038 69 0 0.0 0.0 0.02 0.09 0.01 91 1014.2
20260507042518 69 0 0.0 0.0 0.03 0.09 0.01 91 1014.2
20260507042019 69 0 0.0 0.0 0.02 0.08 0.00 91 1014.5
20260507041537 69 0 0.0 0.0 0.03 0.08 0.00 91 1014.5
20260507041021 69 0 0.0 0.0 0.03 0.08 0.00 90 1015.1
20260507040519 69 0 0.0 1.7 0.04 0.08 0.00 90 1014.8
20260507040035 69 0 0.0 1.7 0.05 0.08 0.00 90 1014.7
20260507035519 69 188 0.0 1.7 0.06 0.08 0.08 89 1014.9
20260507035023 70 0 0.0 2.6 0.06 0.07 0.07 88 1015.4
20260507034537 70 0 0.0 3.5 0.07 0.07 0.07 87 1015.8
20260507034020 70 321 0.9 3.5 0.07 0.07 0.07 87 1015.9
20260507033526 71 298 0.0 3.5 0.07 0.07 0.07 86 1016.0
20260507033039 71 0 0.0 4.3 0.07 0.07 0.07 85 1015.8
20260507032520 72 0 0.0 4.3 0.06 0.06 0.06 84 1015.9
20260507032022 73 0 0.0 4.3 0.05 0.05 0.05 83 1015.9
20260507031537 73 260 0.0 5.2 0.05 0.05 0.05 82 1015.9
20260507031020 74 0 0.0 6.1 0.05 0.05 0.05 81 1016.0
20260507030520 75 0 0.9 6.1 0.04 0.04 0.04 80 1015.8
20260507030036 77 192 0.0 3.5 0.03 0.03 0.03 79 1015.7
20260507025520 77 0 0.0 1.7 0.02 0.02 0.02 77 1015.9